Location: Melita
(38.4566°N, 122.6369°W)
Time: 21:48:57
(UTC+00:00)

SL-8 Rocket - Pass Details

Date: 24 January 2020
Orbit: 956 x 991 km, 82.9° (Epoch: 17 February)

Event Time Altitude Azimuth Distance (km) Brightness Sun altitude
Rises 14:15:03 0° 346° (NNW) 3,663 6.7 -13.2°
Reaches altitude 10° 14:17:40 10° 340° (NNW) 2,707 6.0 -12.8°
Maximum altitude 14:23:28 44° 270° (W) 1,298 4.2 -11.7°
Drops below altitude 10° 14:29:13 10° 200° (SSW) 2,678 6.3 -10.6°
Sets 14:31:49 0° 194° (SSW) 3,619 7.0 -10.1°
